Regional Weather Roundup
Issued by NWS

Home | Current Version | Previous Version | Graphics & Text | Print | Product List | Glossary Off
Versions: 1 2 3 4 5 6 7 8 9 10 11 12 13 14 15 16 17 18 19 20 21 22 23 24 25 26 27 28 29 30 31 32 33 34 35 36 37 38 39 40 41 42 43 44 45 46 47 48 49 50

000
ASUS43 KMPX 251510
RWRMN
WEATHER ROUNDUP FOR MINNESOTA
NATIONAL WEATHER SERVICE TWIN CITIES/CHANHASSEN MN
1000 AM CDT MON MAY 25 2015


NOTE: "FAIR" INDICATES FEW OR NO CLOUDS BELOW 12,000 FEET WITH NO
SIGNIFICANT WEATHER AND/OR OBSTRUCTIONS TO VISIBILITY. N/A MEANS
CURRENT SKY AND/OR WEATHER CONDITIONS ARE NOT AVAILABLE.

MNZ060>063-068>070-251600-
   Twin Cities Metro

CITY           SKY/WX    TMP DP  RH WIND       PRES   REMARKS
TWIN CITIES    CLOUDY    61  59  93 SW13      29.68R
ST PAUL        CLOUDY    63  61  93 SW7       29.68R
CRYSTAL        CLOUDY    59  59 100 SW9       29.66F
BLAINE         CLOUDY    63  63 100 S8        29.67R FOG
LAKEVILLE      CLOUDY    61  57  88 SW7       29.70R
EDEN PRAIRIE   CLOUDY    61  58  90 SW8       29.68R
SOUTH ST PAUL  CLOUDY    64  62  94 SW10      29.68S
LAKE ELMO      CLOUDY    63  61  94 SW8       29.69R
$$
MNZ001>005-007-008-013>017-022>024-027-028-251600-
   Northwest Minnesota

CITY           SKY/WX    TMP DP  RH WIND       PRES   REMARKS
BEMIDJI        LGT RAIN  56  54  91 E10       29.77F
HALLOCK        CLOUDY    63  52  67 N5        29.78S
ROSEAU         CLOUDY    64  52  63 NE3       29.78F
WARROAD        CLOUDY    63  52  67 N6        29.79S
THIEF RVR FALL CLOUDY    63  52  67 W5        29.79S
CROOKSTON      CLOUDY    63  54  72 W6        29.78F
FOSSTON        CLOUDY    57  54  88 E5        29.80S
DETROIT LAKES  RAIN      55  54  94 NE12      29.77S
MOORHEAD       RAIN      57  55  94 N13       29.78R
PARK RAPIDS    LGT RAIN  58  54  86 NE13G25   29.72F FOG
MAHNOMEN       LGT RAIN  58  55  91 NE8       29.78S
$$
MNZ006-009>011-018-025>026-251600-
   North Central Minnesota

CITY           SKY/WX    TMP DP  RH WIND       PRES   REMARKS
BAUDETTE       CLOUDY    59  53  80 SE5       29.77S
FLAG ISLAND    CLOUDY    63  45  51 CALM      29.78S
INTL FALLS     CLOUDY    61  53  75 CALM      29.79S
WASKISH        CLOUDY    61  55  82 CALM      29.79R
BIG FORK       LGT RAIN  59  55  88 NE6       29.77F
LONGVILLE      RAIN      57  55  94 N7        29.72F
GRAND RAPIDS   CLOUDY    57  54  88 NE7       29.73F
CRANE LAKE     DRIZZLE   61  54  77 CALM      29.81S
ORR            CLOUDY    57  54  88 CALM      29.77S
COOK           LGT RAIN  59  55  88 CALM      29.78F
WALKER         RAIN      56  54  94 N9        29.75S
$$
MNZ012-019>021-037-251600-
   Northeast Minnesota

CITY           SKY/WX    TMP DP  RH WIND       PRES   REMARKS
DULUTH         RAIN      59  56  89 E21G29    29.69F FOG
ELY            LGT RAIN  57  55  94 NE6       29.76F
HIBBING        LGT RAIN  59  54  83 NE8       29.75F
EVELETH        LGT RAIN  57  55  94 NE7       29.76S
DULUTH HARBOR  DRIZZLE   48  46  93 E18       29.71F
TWO HARBORS    LGT RAIN  61  55  82 E17G28    29.69F
GRAND MARAIS     N/A     60  56  86 NE13G21   29.75F
G MARAIS ARPRT DRIZZLE   55  52  88 NE18G25   29.80F
$$
MNZ029>031-032-039>041-046>048-054>057-064-251600-
   West Central Minnesota

CITY           SKY/WX    TMP DP  RH WIND       PRES   REMARKS
FERGUS FALLS   LGT RAIN  55  55 100 NE18G29   29.72S
WHEATON        RAIN      54  54 100 N13       29.73S
MORRIS         DRIZZLE   61  59  94 N6        29.68S
ALEXANDRIA     LGT RAIN  58  58 100 NE3       29.68F
ELBOW LAKE     RAIN      56  56  98 NE10G17   29.70R
WADENA         RAIN      55  55 100 NE12G18   29.68F
GLENWOOD       CLOUDY    57  55  94 N2        29.68F
APPLETON       CLOUDY    61  57  88 NW7       29.68F
BENSON         CLOUDY    61  55  82 NW3       29.68F
ORTONVILLE     CLOUDY    59  57  94 NW6       29.69F
MADISON        CLOUDY    59  57  94 W9        29.70S
WILLMAR        FAIR      59  59 100 SW8       29.69S
$$
MNZ033>034-036-042>043-049>051-058-059-251600-
   Central Minnesota

CITY           SKY/WX    TMP DP  RH WIND       PRES   REMARKS
ST CLOUD       LGT RAIN  58  57  97 SE7       29.66S FOG
SAUK CENTRE    LGT RAIN  57  56  96 CALM      29.67S
PAYNESVILLE    DRIZZLE   56  56 100 S6        29.67S
AITKIN         DRIZZLE   57  54  88 NE8       29.67F
PINE RIVER     DRIZZLE   55  55 100 N9G17     29.73F
BRAINERD       LGT RAIN  57  56  96 NE8       29.67F FOG
STAPLES        RAIN      55  55 100 NE6       29.68S
LONG PRAIRIE   RAIN      55  55 100 CALM      29.67F
LITTLE FALLS   LGT RAIN  55  54  94 CALM      29.66F
LITCHFIELD     CLOUDY    61  61 100 W5        29.68S
BUFFALO        LGT RAIN  60  58  92 SW6       29.67F
MAPLE LAKE     CLOUDY    61  60  97 SW5       29.67F
$$
MNZ037-044-045-052-053-251600-
   East Central Minnesota

CITY           SKY/WX    TMP DP  RH WIND       PRES   REMARKS
PRINCETON      CLOUDY    59  57  94 E5        29.67S FOG
MORA           CLOUDY    54  54 100 E7        29.68F FOG
CAMBRIDGE      HAZE      61  52  72 SE3       29.65S VSB 1
RUSH CITY      CLOUDY    58  57  97 CALM      29.67S
MOOSE LAKE     CLOUDY    54  52  94 NE6       29.67S
HINCKLEY       LGT RAIN  59  59 100 E5        29.68R
CLOQUET        RAIN      54  52  94 E13G18    29.69F
MCGREGOR       CLOUDY    57  55  94 E12       29.70S
$$
MNZ071>073-080-081-089-090-097-098-251600-
   Southwest Minnesota

CITY           SKY/WX    TMP DP  RH WIND       PRES   REMARKS
MONTEVIDEO     CLOUDY    63  63 100 NW5       29.70R
GRANITE FALLS  CLOUDY    60  58  93 W9        29.71S
CANBY          CLOUDY    60  58  94 W9        29.72F
MARSHALL       CLOUDY    63  54  72 NW15      29.70F
REDWOOD FALLS  CLOUDY    62  58  86 W9        29.69F
OLIVIA         CLOUDY    57  55  94 W10       29.69S
PIPESTONE      CLOUDY    61  57  88 W9        29.74S
WINDOM         CLOUDY    63  57  82 SW12      29.73S
WORTHINGTON    CLOUDY    61  54  77 W12       29.76R
JACKSON        CLOUDY    61  61 100 SW12G17   29.76R
TRACY          CLOUDY    63  58  83 W8        29.72S
SLAYTON        CLOUDY    61  58  87 SW14      29.75R
$$
MNZ065>067-074>077-082>085-091>093-251600-
   South Central Minnesota

CITY           SKY/WX    TMP DP  RH WIND       PRES   REMARKS
MANKATO        CLOUDY    61  57  88 SW13      29.72S
NEW ULM        CLOUDY    61  59  94 W10       29.71S
ST JAMES       CLOUDY    64  59  82 SW12      29.73S
FAIRMONT       CLOUDY    63  54  72 SW14      29.75R
GLENCOE        CLOUDY    61  59  95 SW10G16   29.68S
FARIBAULT      CLOUDY    63  61  94 SW9G16    29.72S
OWATONNA       CLOUDY    64  61  88 SW14      29.73S
WASECA         CLOUDY    63  59  88 SW14      29.74S
ALBERT LEA     CLOUDY    63  61  94 SW7G17    29.75R
$$
MNZ078>079-086>088-094>096-251600-
   Southeast Minnesota

CITY           SKY/WX    TMP DP  RH WIND       PRES   REMARKS
ROCHESTER      CLOUDY    64  60  87 SW18      29.75R
RED WING       CLOUDY    63  63 100 SW7       29.69R
STANTON        CLOUDY    64  59  85 SW12G18   29.69S
DODGE CENTER   CLOUDY    63  61  94 SW17      29.73S
WINONA         CLOUDY    66  63  88 SW6       29.72R
AUSTIN         CLOUDY    63  61  94 SW14      29.75S
PRESTON        CLOUDY    63  59  87 SW14G20   29.76R
$$
ABBREVIATIONS USED IN REMARKS
   TC - TEMPERATURES IN CELSIUS
  WCI - WIND CHILL INDEX
   HX - HEAT INDEX
  VSB - VISIBILITY
$$


USA.gov is the U.S. government's official web portal to all federal, state and local government web resources and services.